Time,TemperatureF,DewpointF,PressureIn,WindDirection,WindDirectionDegrees,WindSpeedMPH,WindSpeedGustMPH,Humidity,HourlyPrecipIn,Conditions,Clouds,dailyrainin,SoftwareType,DateUTC
2013-01-20 00:05:00,46.2,22.0,29.85,ENE,58,11.0,14.0,38,0.00,,,0.00,weatherlink.com 1.10,2013-01-20 05:05:00,
2013-01-20 00:25:00,45.7,22.0,29.85,ENE,75,6.0,15.0,39,0.00,,,0.00,weatherlink.com 1.10,2013-01-20 05:25:00,
2013-01-20 00:43:00,45.5,22.0,29.85,NE,44,9.0,13.0,40,0.00,,,0.00,weatherlink.com 1.10,2013-01-20 05:43:00,
2013-01-20 01:01:00,45.3,23.0,29.85,NNE,20,8.0,15.0,41,0.00,,,0.00,weatherlink.com 1.10,2013-01-20 06:01:00,
2013-01-20 01:21:00,45.2,23.0,29.84,East,97,11.0,20.0,42,0.00,,,0.00,weatherlink.com 1.10,2013-01-20 06:21:00,
2013-01-20 01:39:00,45.0,24.0,29.83,NE,46,8.0,20.0,43,0.00,,,0.00,weatherlink.com 1.10,2013-01-20 06:39:00,
2013-01-20 01:57:00,44.8,24.0,29.83,East,86,6.0,16.0,44,0.00,,,0.00,weatherlink.com 1.10,2013-01-20 06:57:00,
2013-01-20 02:17:00,45.0,25.0,29.83,ENE,58,12.0,21.0,45,0.00,,,0.00,weatherlink.com 1.10,2013-01-20 07:17:00,
2013-01-20 02:35:00,45.2,25.0,29.83,NE,51,6.0,17.0,45,0.00,,,0.00,weatherlink.com 1.10,2013-01-20 07:35:00,
2013-01-20 02:53:00,45.0,26.0,29.82,ENE,65,11.0,21.0,47,0.00,,,0.00,weatherlink.com 1.10,2013-01-20 07:53:00,
2013-01-20 03:12:00,45.1,27.0,29.82,NE,43,11.0,23.0,49,0.00,,,0.00,weatherlink.com 1.10,2013-01-20 08:12:00,
2013-01-20 03:30:00,45.1,28.0,29.80,ESE,113,4.0,18.0,51,0.00,,,0.00,weatherlink.com 1.10,2013-01-20 08:30:00,
2013-01-20 03:50:00,45.0,28.0,29.80,East,84,12.0,20.0,52,0.00,,,0.00,weatherlink.com 1.10,2013-01-20 08:50:00,
2013-01-20 04:08:00,44.7,28.0,29.80,NE,46,14.0,18.0,53,0.00,,,0.00,weatherlink.com 1.10,2013-01-20 09:08:00,
2013-01-20 04:26:00,44.5,29.0,29.79,ENE,72,9.0,23.0,54,0.00,,,0.00,weatherlink.com 1.10,2013-01-20 09:26:00,
2013-01-20 04:46:00,44.3,29.0,29.79,East,84,10.0,24.0,55,0.00,,,0.00,weatherlink.com 1.10,2013-01-20 09:46:00,
2013-01-20 05:04:00,44.0,29.0,29.79,ENE,58,8.0,23.0,56,0.00,,,0.00,weatherlink.com 1.10,2013-01-20 10:04:00,
2013-01-20 05:22:00,43.8,29.0,29.79,SE,140,11.0,28.0,57,0.00,,,0.00,weatherlink.com 1.10,2013-01-20 10:22:00,
2013-01-20 05:40:00,44.0,30.0,29.80,SW,214,7.0,17.0,58,0.00,,,0.00,weatherlink.com 1.10,2013-01-20 10:40:00,
2013-01-20 06:00:00,44.4,30.0,29.80,East,79,13.0,19.0,58,0.00,,,0.00,weatherlink.com 1.10,2013-01-20 11:00:00,
2013-01-20 06:18:00,44.5,30.0,29.81,East,81,11.0,22.0,58,0.00,,,0.00,weatherlink.com 1.10,2013-01-20 11:18:00,
2013-01-20 06:36:00,44.5,31.0,29.81,ESE,115,8.0,20.0,59,0.00,,,0.00,weatherlink.com 1.10,2013-01-20 11:36:00,
2013-01-20 06:56:00,44.4,31.0,29.81,SSE,150,7.0,27.0,59,0.00,,,0.00,weatherlink.com 1.10,2013-01-20 11:56:00,
2013-01-20 07:14:00,44.4,31.0,29.82,East,95,6.0,15.0,60,0.00,,,0.00,weatherlink.com 1.10,2013-01-20 12:14:00,
2013-01-20 07:32:00,44.4,31.0,29.83,East,91,7.0,21.0,59,0.00,,,0.00,weatherlink.com 1.10,2013-01-20 12:32:00,
2013-01-20 07:52:00,43.8,29.0,29.84,East,93,7.0,18.0,56,0.00,,,0.00,weatherlink.com 1.10,2013-01-20 12:52:00,
2013-01-20 08:10:00,43.2,28.0,29.85,ENE,63,8.0,21.0,55,0.00,,,0.00,weatherlink.com 1.10,2013-01-20 13:10:00,
2013-01-20 08:28:00,43.2,25.0,29.87,ESE,113,3.0,25.0,49,0.00,,,0.00,weatherlink.com 1.10,2013-01-20 13:28:00,
2013-01-20 08:48:00,42.6,24.0,29.89,ESE,113,4.0,32.0,49,0.00,,,0.00,weatherlink.com 1.10,2013-01-20 13:48:00,
2013-01-20 09:06:00,42.1,24.0,29.90,SE,136,13.0,22.0,48,0.00,,,0.00,weatherlink.com 1.10,2013-01-20 14:06:00,
2013-01-20 09:24:00,40.9,22.0,29.91,ESE,114,18.0,22.0,48,0.00,,,0.00,weatherlink.com 1.10,2013-01-20 14:24:00,
2013-01-20 09:42:00,40.8,23.0,29.93,SE,139,12.0,23.0,50,0.00,,,0.00,weatherlink.com 1.10,2013-01-20 14:42:00,
2013-01-20 10:19:00,39.6,21.0,29.95,ESE,112,12.0,23.0,48,0.00,,,0.00,weatherlink.com 1.10,2013-01-20 15:19:00,
2013-01-20 10:39:00,39.7,22.0,29.95,SE,129,10.0,17.0,49,0.00,,,0.00,weatherlink.com 1.10,2013-01-20 15:39:00,
2013-01-20 10:58:00,39.7,21.0,29.96,East,84,6.0,19.0,48,0.00,,,0.00,weatherlink.com 1.10,2013-01-20 15:58:00,
2013-01-20 11:16:00,39.1,18.0,29.97,SE,134,11.0,32.0,42,0.00,,,0.00,weatherlink.com 1.10,2013-01-20 16:16:00,
2013-01-20 11:34:00,38.1,17.0,29.98,SE,140,16.0,27.0,43,0.00,,,0.00,weatherlink.com 1.10,2013-01-20 16:34:00,
2013-01-20 11:52:00,38.2,18.0,29.97,ESE,104,13.0,21.0,45,0.00,,,0.00,weatherlink.com 1.10,2013-01-20 16:52:00,
2013-01-20 12:12:00,36.7,19.0,29.98,ESE,113,14.0,25.0,49,0.00,,,0.00,weatherlink.com 1.10,2013-01-20 17:12:00,
2013-01-20 12:30:00,36.4,18.0,29.98,SE,128,20.0,24.0,47,0.00,,,0.00,weatherlink.com 1.10,2013-01-20 17:30:00,
2013-01-20 12:48:00,35.4,16.0,29.99,SE,134,16.0,28.0,45,0.00,,,0.00,weatherlink.com 1.10,2013-01-20 17:48:00,
2013-01-20 13:07:00,35.4,16.0,29.99,SE,127,10.0,21.0,45,0.00,,,0.00,weatherlink.com 1.10,2013-01-20 18:07:00,
2013-01-20 13:25:00,35.5,15.0,30.00,East,99,15.0,21.0,44,0.00,,,0.00,weatherlink.com 1.10,2013-01-20 18:25:00,
2013-01-20 13:45:00,35.3,15.0,30.01,East,96,21.0,22.0,44,0.00,,,0.00,weatherlink.com 1.10,2013-01-20 18:45:00,
2013-01-20 14:01:00,35.1,15.0,30.02,East,98,7.0,25.0,43,0.00,,,0.00,weatherlink.com 1.10,2013-01-20 19:01:00,
2013-01-20 14:16:00,34.9,17.0,30.02,SSE,154,8.0,22.0,48,0.00,,,0.00,weatherlink.com 1.10,2013-01-20 19:16:00,
2013-01-20 14:30:00,34.1,16.0,30.03,SE,133,11.0,22.0,48,0.00,,,0.00,weatherlink.com 1.10,2013-01-20 19:30:00,
2013-01-20 14:45:00,33.9,13.0,30.04,SSE,168,6.0,23.0,43,0.00,,,0.00,weatherlink.com 1.10,2013-01-20 19:45:00,
2013-01-20 15:00:00,33.9,14.0,30.05,SE,145,13.0,19.0,44,0.00,,,0.00,weatherlink.com 1.10,2013-01-20 20:00:00,
2013-01-20 15:15:00,33.6,14.0,30.05,SE,131,7.0,17.0,45,0.00,,,0.00,weatherlink.com 1.10,2013-01-20 20:15:00,
2013-01-20 15:30:00,33.3,13.0,30.05,SSE,149,7.0,16.0,44,0.00,,,0.00,weatherlink.com 1.10,2013-01-20 20:30:00,
2013-01-20 15:45:00,33.0,14.0,30.06,ESE,113,8.0,19.0,46,0.00,,,0.00,weatherlink.com 1.10,2013-01-20 20:45:00,
2013-01-20 16:00:00,32.5,14.0,30.06,ESE,110,7.0,16.0,47,0.00,,,0.00,weatherlink.com 1.10,2013-01-20 21:00:00,
2013-01-20 16:16:00,32.0,15.0,30.06,SSE,148,4.0,15.0,50,0.00,,,0.00,weatherlink.com 1.10,2013-01-20 21:16:00,
2013-01-20 16:31:00,30.9,14.0,30.06,SE,136,5.0,11.0,50,0.00,,,0.00,weatherlink.com 1.10,2013-01-20 21:31:00,
2013-01-20 16:46:00,30.2,14.0,30.07,ESE,117,6.0,12.0,51,0.00,,,0.00,weatherlink.com 1.10,2013-01-20 21:46:00,
2013-01-20 17:01:00,29.8,14.0,30.08,SSE,150,2.0,11.0,53,0.00,,,0.00,weatherlink.com 1.10,2013-01-20 22:01:00,
2013-01-20 17:16:00,29.2,14.0,30.09,SE,133,5.0,10.0,54,0.00,,,0.00,weatherlink.com 1.10,2013-01-20 22:16:00,
2013-01-20 17:31:00,28.8,14.0,30.09,ESE,123,4.0,9.0,54,0.00,,,0.00,weatherlink.com 1.10,2013-01-20 22:31:00,
2013-01-20 17:46:00,28.5,14.0,30.10,ESE,117,5.0,10.0,54,0.00,,,0.00,weatherlink.com 1.10,2013-01-20 22:46:00,
2013-01-20 18:01:00,28.0,14.0,30.11,SE,131,4.0,9.0,55,0.00,,,0.00,weatherlink.com 1.10,2013-01-20 23:01:00,
2013-01-20 18:16:00,27.4,14.0,30.12,ESE,121,5.0,7.0,58,0.00,,,0.00,weatherlink.com 1.10,2013-01-20 23:16:00,
2013-01-20 18:46:00,26.5,14.0,30.13,SE,133,1.0,5.0,60,0.00,,,0.00,weatherlink.com 1.10,2013-01-20 23:46:00,
2013-01-20 19:01:00,26.0,14.0,30.13,SE,127,1.0,6.0,60,0.00,,,0.00,weatherlink.com 1.10,2013-01-21 00:01:00,
2013-01-20 19:16:00,25.5,14.0,30.13,SE,132,2.0,3.0,61,0.00,,,0.00,weatherlink.com 1.10,2013-01-21 00:16:00,
2013-01-20 19:31:00,25.0,14.0,30.13,ESE,120,0.0,1.0,62,0.00,,,0.00,weatherlink.com 1.10,2013-01-21 00:31:00,
2013-01-20 19:46:00,24.8,14.0,30.13,ESE,120,0.0,1.0,63,0.00,,,0.00,weatherlink.com 1.10,2013-01-21 00:46:00,
2013-01-20 20:16:00,23.9,14.0,30.14,ESE,122,0.0,1.0,65,0.00,,,0.00,weatherlink.com 1.10,2013-01-21 01:16:00,
2013-01-20 20:31:00,23.7,14.0,30.15,ESE,122,1.0,4.0,66,0.00,,,0.00,weatherlink.com 1.10,2013-01-21 01:31:00,
2013-01-20 21:02:00,23.1,13.0,30.15,ESE,111,0.0,3.0,66,0.00,,,0.00,weatherlink.com 1.10,2013-01-21 02:02:00,
2013-01-20 21:31:00,23.0,14.0,30.16,ESE,120,1.0,2.0,67,0.00,,,0.00,weatherlink.com 1.10,2013-01-21 02:31:00,
2013-01-20 21:47:00,22.7,14.0,30.15,SE,135,0.0,3.0,68,0.00,,,0.00,weatherlink.com 1.10,2013-01-21 02:47:00,
2013-01-20 22:02:00,23.0,14.0,30.15,SE,131,0.0,2.0,68,0.00,,,0.00,weatherlink.com 1.10,2013-01-21 03:02:00,
2013-01-20 22:17:00,23.0,14.0,30.15,SE,131,0.0,1.0,68,0.00,,,0.00,weatherlink.com 1.10,2013-01-21 03:17:00,
2013-01-20 22:32:00,23.1,14.0,30.15,SE,127,1.0,3.0,67,0.00,,,0.00,weatherlink.com 1.10,2013-01-21 03:32:00,
2013-01-20 22:47:00,23.2,14.0,30.16,SE,129,1.0,5.0,68,0.00,,,0.00,weatherlink.com 1.10,2013-01-21 03:47:00,
2013-01-20 23:02:00,23.2,14.0,30.15,ESE,107,2.0,7.0,67,0.00,,,0.00,weatherlink.com 1.10,2013-01-21 04:02:00,
2013-01-20 23:17:00,23.1,14.0,30.15,ESE,119,2.0,7.0,67,0.00,,,0.00,weatherlink.com 1.10,2013-01-21 04:17:00,
2013-01-20 23:32:00,23.0,14.0,30.15,SE,127,4.0,5.0,67,0.00,,,0.00,weatherlink.com 1.10,2013-01-21 04:32:00,
2013-01-20 23:47:00,23.0,14.0,30.14,SE,127,5.0,6.0,67,0.00,,,0.00,weatherlink.com 1.10,2013-01-21 04:47:00,